Find Starlink 31126

NORAD ID: 58675 Int'l Des: 2023-211 Owner: SPXS Country: US Constellation: starlink operational
LEOCIRCULAR

当前视图

正在加载3D地球...

About Starlink 31126

Starlink 31126 (NORAD 58675) is a starlink constellation satellite (v2 mini) launched Dec 29, 2023 by SPXS of US. It operates in LEO, CIRCULAR orbit with a mass of 730.00 kg.

关于 Starlink 31126

正在加载描述...

即将过境

Passes for default location (London). Set your location on the main map for personalized predictions.

高度历史

Loading altitude history...

两行轨道根数

1 58675U 23211J 26177.32115161 .00000395 00000-0 23887-4 0 9992
2 58675 43.0001 191.3259 0001184 265.9244 94.1472 15.27578790139086
Epoch: Jun 26, 2026 • Age: 23 hours

当前状态

高度 488.9 km
速度 7.62 km/s
星下点 -25.58°S, 21.76°E
发射日期 Dec 29, 2023
运行时间 2.4 years
类型 internet

技术详情

分类 Payload
质量 730.00 kg
干质量 700.00 kg
总质量 730.00 kg
长度 0.30 m
直径 4.10 m
跨度 29.00 m
形状 Box + pan
制造商 SPXS
平台类型 Starlink V2M
阶段状态 In Orbit
所有者/国家 SPXS/US

Most Searched